Hourly Data Report for October 25, 2014

All times are specified in Local Standard Time (LST). Add 1 hour to adjust for Daylight Saving Time where and when it is observed.

CLYDE RIVER A
NUNAVUT

70°29'09.000" N
68°31'01.000" W
26.50 m
2400804
71090
YCY

Download Data

Hourly Data (October 2014)
Hourly Data Report for October 25, 2014
Temp Definition
°C
Dew Point Temp Definition
°C
Rel Hum Definition
%
Wind Dir Definition
10's deg

Wind Spd Definition
km/h
Visibility Definition
km
Stn Press Definition
kPa
Hmdx Definition


Wind Chill Definition


Weather Definition


TIME
00:00 Legend Double Dagger -10.1 -13.2 78 30 26 16.1 101.28   -19 Snow
01:00 Legend Double Dagger -10.4 -13.1 81 30 26 16.1 101.33   -19 Snow
02:00 Legend Double Dagger -10.3 -13.1 80 31 30 16.1 101.36   -20 Snow
03:00 Legend Double Dagger -10.2 -13.5 77 30 32 16.1 101.40   -20 LegendNANA
04:00 Legend Double Dagger -10.3 -13.5 78 30 30 16.1 101.41   -20 LegendNANA
05:00 Legend Double Dagger -12.0 -15.1 78 30 32 16.1 101.46   -22 LegendNANA
06:00 Legend Double Dagger -13.3 -16.2 79 31 28 16.1 101.49   -24 LegendNANA
07:00 Legend Double Dagger -13.1 -16.0 79 30 28 16.1 101.50   -23 LegendNANA
08:00 Legend Double Dagger -13.4 -16.3 79 31 30 16.1 101.52   -24 LegendNANA
09:00 Legend Double Dagger -14.2 -17.1 79 29 28 16.1 101.57   -25 LegendNANA
10:00 Legend Double Dagger -13.5 -16.3 80 29 32 16.1 101.56   -24 LegendNANA
11:00 Legend Double Dagger -14.3 -17.0 80 30 21 16.1 101.58   -24 LegendNANA
12:00 Legend Double Dagger -13.9 -16.7 80 29 26 16.1 101.59   -24 LegendNANA
13:00 Legend Double Dagger -14.2 -16.9 80 29 32 16.1 101.62   -25 LegendNANA
14:00 Legend Double Dagger -14.2 -16.8 81 29 32 16.1 101.65   -25 LegendNANA
15:00 Legend Double Dagger -14.3 -16.7 82 29 35 16.1 101.69   -26 LegendNANA
16:00 Legend Double Dagger -14.3 -16.6 83 29 32 16.1 101.72   -25 LegendNANA
17:00 Legend Double Dagger -14.5 -17.1 81 29 34 16.1 101.72   -26 LegendNANA
18:00 Legend Double Dagger -14.3 -17.0 80 29 32 16.1 101.74   -25 LegendNANA
19:00 Legend Double Dagger -15.0 -17.9 79 29 30 16.1 101.74   -26 LegendNANA
20:00 Legend Double Dagger -15.2 -17.9 80 29 32 16.1 101.74   -27 LegendNANA
21:00 Legend Double Dagger -15.0 -17.8 80 29 30 16.1 101.70   -26 LegendNANA
22:00 Legend Double Dagger -15.1 -18.0 79 29 32 16.1 101.70   -26 LegendNANA
23:00 Legend Double Dagger -15.4 -18.4 78 29 28 16.1 101.70   -26 LegendNANA

Notes on Data Quality.

Legend

  • E = Estimated
  • M = Missing
  • NA = Not Available
  • ‡ = Partner data that is not subject to review by the National Climate Archives
Date modified: